Regional Weather Roundup
Issued by NWS

Home | Current Version | Previous Version | Graphics & Text | Print | Product List | Glossary On
Versions: 1 2 3 4 5 6 7 8 9 10 11 12 13 14 15 16 17 18 19 20 21 22 23 24 25 26 27 28 29 30 31 32 33 34 35 36 37 38 39 40 41 42 43 44 45 46 47 48 49 50
916
ASUS43 KLSX 190057
RWRMO

WEATHER SUMMARY FOR MISSOURI
NATIONAL WEATHER SERVICE SPRINGFIELD MO
700 PM CST THU JAN 18 2018

NOTE: "FAIR" INDICATES FEW OR NO CLOUDS BELOW 12,000 FEET WITH NO
       SIGNIFICANT WEATHER AND/OR OBSTRUCTIONS TO VISIBILITY.
       CURRENT SKY AND/OR WEATHER CONDITIONS ARE NOT AVAILABLE FOR
       CHILLICOTHE AND FARMINGTON.

MOZ001>031-035>038-043-044-053-054-190200-
...NORTHERN AND WESTERN MISSOURI...

CITY           SKY/WX    TMP DP  RH WIND       PRES   REMARKS
KANSAS CTY INT CLOUDY    35  22  58 S16       30.06R WCI  25
LEE`S SUMMIT   CLOUDY    33  22  63 S13       30.09R WCI  24
ST JOSEPH      CLOUDY    33  25  72 S8        30.05R WCI  26
CHILLICOTHE      N/A     33  21  61 S8        30.09R WCI  26

$$
MOZ066>068-077>081-088>096-101>105-190200-
...SOUTHWEST MISSOURI...

CITY           SKY/WX    TMP DP  RH WIND       PRES   REMARKS
SPRINGFIELD    CLEAR     35  19  52 S10       30.19R WCI  27
JOPLIN         CLEAR     37  19  48 S12       30.20R WCI  29
BRANSON        PTCLDY    37   9  30 S8        30.23R

$$
MOZ032>034-039>042-045>050-055>058-069>072-190200-
...CENTRAL MISSOURI...

CITY           SKY/WX    TMP DP  RH WIND       PRES   REMARKS
COLUMBIA       NOT AVBL
JEFFERSON CITY CLEAR     40  18  41 SE5       30.16S
ROLLA          CLEAR     35  19  52 S14       30.17S WCI  26
SEDALIA        CLOUDY    38  22  52 S17       30.12F WCI  28
WARRENSBURG    CLOUDY    34  21  60 S9        30.11S WCI  26

$$
MOZ051-052-059>065-190200-
...EAST CENTRAL MISSOURI...

CITY           SKY/WX    TMP DP  RH WIND       PRES   REMARKS
ST LOUIS INTL  PTCLDY    41  15  35 S9        30.16F

$$
MOZ072>076-082>087-097>100-106>115-190200-
...SOUTH CENTRAL AND SOUTHEAST MISSOURI...

CITY           SKY/WX    TMP DP  RH WIND       PRES   REMARKS
CAPE GIRARDEAU FAIR      25  17  72 S13       30.32S WCI  14
POPLAR BLUFF   FAIR      26  19  74 S7        30.31F WCI  18

$$



USA.gov is the U.S. government's official web portal to all federal, state and local government web resources and services.